When you browse on this site, cookies collect data to enhance your experience and personalize the content and advertising you see.
Visit our Privacy Policy to learn more. By continuing to use the site, you agree to this use of cookies and data.
  • In Deutschland
  • Länderverzeichnis
  • Für 7 Tage
  • Wassertemperatur
  • Wetterkarte
  • Widgets
  • user-avatar
    Anmelden

    Stündliche Wetter Chichester

    Heute, 24 September, Dienstag

    Zeit Temperatur Niederschläge Wind Luftdruck Luftfeuchtigkeit
    00:00 +17°C° 0 mm 8 m/S 753 mmHg 93%
    01:00 +17°C° 0.7 mm 9 m/S 753 mmHg 93%
    02:00 +17°C° 0.7 mm 9 m/S 752 mmHg 93%
    03:00 +17°C° 0.7 mm 10 m/S 751 mmHg 94%
    04:00 +17°C° 2.5 mm 10 m/S 750 mmHg 93%
    05:00 +17°C° 2.5 mm 10 m/S 750 mmHg 93%
    06:00 +17°C° 2.5 mm 10 m/S 749 mmHg 92%
    07:00 +17°C° 1.7 mm 10 m/S 749 mmHg 92%
    08:00 +16°C° 1.7 mm 9 m/S 748 mmHg 92%
    09:00 +16°C° 1.7 mm 9 m/S 748 mmHg 92%
    10:00 +17°C° 0.7 mm 9 m/S 748 mmHg 86%
    11:00 +18°C° 0.7 mm 10 m/S 749 mmHg 80%
    12:00 +19°C° 0.7 mm 10 m/S 749 mmHg 74%
    13:00 +19°C° 0.1 mm 10 m/S 749 mmHg 74%
    14:00 +18°C° 0.1 mm 10 m/S 749 mmHg 73%
    15:00 +18°C° 0.1 mm 11 m/S 749 mmHg 72%
    16:00 +17°C° 0.1 mm 10 m/S 749 mmHg 75%
    17:00 +16°C° 0.1 mm 9 m/S 749 mmHg 79%
    18:00 +16°C° 0.1 mm 9 m/S 750 mmHg 82%
    19:00 +16°C° 0.3 mm 8 m/S 750 mmHg 83%
    20:00 +15°C° 0.3 mm 8 m/S 750 mmHg 85%
    21:00 +15°C° 0.3 mm 8 m/S 750 mmHg 86%
    22:00 +15°C° 0.2 mm 8 m/S 750 mmHg 87%
    23:00 +15°C° 0.2 mm 9 m/S 750 mmHg 88%

    Morgen, 25 September, Mittwoch

    Zeit Temperatur Niederschläge Wind Luftdruck Luftfeuchtigkeit
    00:00 +15°C° 0.2 mm 9 m/S 749 mmHg 89%
    01:00 +15°C° 0.9 mm 9 m/S 749 mmHg 89%
    02:00 +14°C° 0.9 mm 10 m/S 748 mmHg 90%
    03:00 +14°C° 0.9 mm 10 m/S 748 mmHg 91%
    04:00 +14°C° 1 mm 10 m/S 748 mmHg 91%
    05:00 +14°C° 1 mm 10 m/S 747 mmHg 91%
    06:00 +14°C° 1 mm 10 m/S 747 mmHg 91%
    07:00 +14°C° 1 mm 10 m/S 747 mmHg 91%
    08:00 +14°C° 1 mm 10 m/S 747 mmHg 91%
    09:00 +16°C° 1 mm 10 m/S 748 mmHg 90%
    10:00 +16°C° 0.6 mm 10 m/S 748 mmHg 89%
    11:00 +16°C° 0.6 mm 10 m/S 748 mmHg 88%
    12:00 +17°C° 0.6 mm 9 m/S 749 mmHg 87%
    13:00 +17°C° 0.1 mm 9 m/S 749 mmHg 85%
    14:00 +17°C° 0.1 mm 9 m/S 749 mmHg 83%
    15:00 +18°C° 0.1 mm 8 m/S 749 mmHg 81%
    16:00 +17°C° 0 mm 8 m/S 750 mmHg 82%
    17:00 +16°C° 0 mm 8 m/S 750 mmHg 84%
    18:00 +16°C° 0 mm 7 m/S 751 mmHg 85%
    19:00 +15°C° 0 mm 7 m/S 751 mmHg 87%
    20:00 +15°C° 0 mm 6 m/S 752 mmHg 89%
    21:00 +14°C° 0 mm 5 m/S 752 mmHg 91%
    22:00 +15°C° 0.1 mm 6 m/S 752 mmHg 92%
    23:00 +15°C° 0.1 mm 6 m/S 752 mmHg 92%

    übermorgen, 26 September, Donnerstag

    Zeit Temperatur Niederschläge Wind Luftdruck Luftfeuchtigkeit
    00:00 +16°C° 0.1 mm 7 m/S 752 mmHg 93%
    01:00 +16°C° 0.6 mm 7 m/S 752 mmHg 93%
    02:00 +16°C° 0.6 mm 8 m/S 751 mmHg 93%
    03:00 +17°C° 0.6 mm 8 m/S 751 mmHg 93%
    04:00 +17°C° 0.4 mm 8 m/S 751 mmHg 92%
    05:00 +17°C° 0.4 mm 8 m/S 751 mmHg 92%
    06:00 +17°C° 0.4 mm 8 m/S 751 mmHg 91%
    07:00 +17°C° 0.3 mm 9 m/S 751 mmHg 91%
    08:00 +17°C° 0.3 mm 10 m/S 752 mmHg 90%
    09:00 +17°C° 0.3 mm 10 m/S 752 mmHg 90%
    10:00 +17°C° 0.9 mm 10 m/S 752 mmHg 88%
    11:00 +17°C° 0.9 mm 9 m/S 752 mmHg 87%
    12:00 +16°C° 0.9 mm 9 m/S 752 mmHg 85%
    13:00 +17°C° 0.1 mm 9 m/S 752 mmHg 80%
    14:00 +17°C° 0.1 mm 9 m/S 752 mmHg 74%
    15:00 +17°C° 0.1 mm 10 m/S 752 mmHg 69%
    16:00 +16°C° 0 mm 9 m/S 753 mmHg 72%
    17:00 +15°C° 0 mm 8 m/S 753 mmHg 75%
    18:00 +15°C° 0 mm 8 m/S 753 mmHg 78%
    19:00 +13°C° 0.1 mm 8 m/S 753 mmHg 79%
    20:00 +13°C° 0.1 mm 8 m/S 754 mmHg 80%
    21:00 +13°C° 0.1 mm 8 m/S 754 mmHg 81%
    22:00 +13°C° 0.1 mm 8 m/S 754 mmHg 81%
    23:00 +13°C° 0.1 mm 8 m/S 754 mmHg 81%

    27 September, Freitag

    Zeit Temperatur Niederschläge Wind Luftdruck Luftfeuchtigkeit
    00:00 +13°C° 0.1 mm 8 m/S 754 mmHg 82%
    01:00 +13°C° 0.2 mm 8 m/S 753 mmHg 81%
    02:00 +13°C° 0.2 mm 8 m/S 753 mmHg 81%
    03:00 +13°C° 0.2 mm 8 m/S 753 mmHg 81%
    04:00 +13°C° 0.2 mm 8 m/S 753 mmHg 81%
    05:00 +13°C° 0.2 mm 8 m/S 753 mmHg 82%
    06:00 +13°C° 0.2 mm 8 m/S 752 mmHg 82%
    07:00 +13°C° 0.4 mm 9 m/S 752 mmHg 81%
    08:00 +15°C° 0.4 mm 9 m/S 753 mmHg 80%
    09:00 +14°C° 0.4 mm 10 m/S 753 mmHg 79%
    10:00 +16°C° 0.2 mm 10 m/S 753 mmHg 74%
    11:00 +17°C° 0.2 mm 10 m/S 753 mmHg 69%
    12:00 +17°C° 0.2 mm 11 m/S 753 mmHg 64%
    13:00 +17°C° 0.3 mm 11 m/S 753 mmHg 66%
    14:00 +17°C° 0.3 mm 11 m/S 753 mmHg 69%
    15:00 +17°C° 0.3 mm 11 m/S 753 mmHg 71%
    16:00 +16°C° 0.3 mm 11 m/S 753 mmHg 74%
    17:00 +14°C° 0.3 mm 10 m/S 754 mmHg 77%
    18:00 +13°C° 0.3 mm 10 m/S 754 mmHg 80%
    19:00 +13°C° 0.1 mm 9 m/S 754 mmHg 80%
    20:00 +13°C° 0.1 mm 9 m/S 754 mmHg 80%
    21:00 +13°C° 0.1 mm 9 m/S 755 mmHg 81%
    22:00 +13°C° 0.2 mm 9 m/S 755 mmHg 81%
    23:00 +12°C° 0.2 mm 9 m/S 755 mmHg 81%

    28 September, Samstag

    Zeit Temperatur Niederschläge Wind Luftdruck Luftfeuchtigkeit
    00:00 +12°C° 0.2 mm 9 m/S 755 mmHg 82%
    01:00 +12°C° 0.1 mm 9 m/S 755 mmHg 82%
    02:00 +12°C° 0.1 mm 9 m/S 755 mmHg 82%
    03:00 +12°C° 0.1 mm 10 m/S 755 mmHg 82%
    04:00 +12°C° 0.1 mm 9 m/S 755 mmHg 82%
    05:00 +12°C° 0.1 mm 9 m/S 756 mmHg 82%
    06:00 +11°C° 0.1 mm 9 m/S 756 mmHg 82%
    07:00 +12°C° 0 mm 9 m/S 756 mmHg 78%
    08:00 +13°C° 0 mm 9 m/S 757 mmHg 75%
    09:00 +15°C° 0 mm 9 m/S 757 mmHg 71%
    10:00 +15°C° 0 mm 9 m/S 757 mmHg 68%
    11:00 +16°C° 0 mm 9 m/S 758 mmHg 65%
    12:00 +16°C° 0 mm 9 m/S 758 mmHg 62%
    13:00 +16°C° 0 mm 9 m/S 758 mmHg 62%
    14:00 +16°C° 0 mm 9 m/S 758 mmHg 62%
    15:00 +16°C° 0 mm 9 m/S 758 mmHg 62%
    16:00 +16°C° 0 mm 8 m/S 757 mmHg 65%
    17:00 +15°C° 0 mm 8 m/S 757 mmHg 69%
    18:00 +14°C° 0 mm 7 m/S 757 mmHg 73%
    19:00 +14°C° 0 mm 7 m/S 757 mmHg 75%
    20:00 +14°C° 0 mm 7 m/S 757 mmHg 76%
    21:00 +14°C° 0 mm 6 m/S 757 mmHg 78%
    22:00 +14°C° 0.1 mm 6 m/S 757 mmHg 79%
    23:00 +14°C° 0.1 mm 6 m/S 756 mmHg 79%

    29 September, Sonntag

    Zeit Temperatur Niederschläge Wind Luftdruck Luftfeuchtigkeit
    00:00 +14°C° 0.1 mm 6 m/S 756 mmHg 80%
    01:00 +14°C° 0.3 mm 7 m/S 755 mmHg 82%
    02:00 +13°C° 0.3 mm 8 m/S 754 mmHg 84%
    03:00 +13°C° 0.3 mm 9 m/S 753 mmHg 87%
    04:00 +13°C° 0.8 mm 9 m/S 753 mmHg 88%
    05:00 +13°C° 0.8 mm 10 m/S 752 mmHg 89%
    06:00 +13°C° 0.8 mm 10 m/S 751 mmHg 90%
    07:00 +13°C° 1.1 mm 10 m/S 751 mmHg 90%
    08:00 +14°C° 1.1 mm 10 m/S 750 mmHg 90%
    09:00 +14°C° 1.1 mm 11 m/S 749 mmHg 90%
    10:00 +16°C° 0.5 mm 11 m/S 749 mmHg 89%
    11:00 +17°C° 0.5 mm 11 m/S 749 mmHg 88%
    12:00 +17°C° 0.5 mm 11 m/S 748 mmHg 87%
    13:00 +17°C° 0.2 mm 11 m/S 748 mmHg 86%
    14:00 +17°C° 0.2 mm 11 m/S 748 mmHg 86%
    15:00 +17°C° 0.2 mm 12 m/S 747 mmHg 86%
    16:00 +17°C° 0.1 mm 11 m/S 748 mmHg 87%
    17:00 +17°C° 0.1 mm 10 m/S 748 mmHg 87%
    18:00 +17°C° 0.1 mm 10 m/S 748 mmHg 88%
    19:00 +16°C° 0 mm 9 m/S 749 mmHg 88%
    20:00 +15°C° 0 mm 9 m/S 750 mmHg 88%
    21:00 +13°C° 0 mm 9 m/S 751 mmHg 87%
    22:00 +14°C° 0 mm 7 m/S 751 mmHg 89%
    23:00 +13°C° 0 mm 6 m/S 752 mmHg 90%
    Mehr zeigen